SCP
-0 -0 0 -0 -0 -0 0 0 0 0 0 0 1 1 1 1 1 1 1 1 1 0 0 0 0 1 1 1 1 1 1 1
-0 -0 -0 -0 -0 -0 -0 0 0 -0 -0 0 0 1 1 2 1 1 1 1 0 0 0 0 1 1 1 1 1 1 1 0
-0 0 0 -0 -0 -0 -0 -0 -0 0 0 0 0 0 0 0 1 1 1 1 1 1 1 1 1 1 1 1 1 1 1 1
0 0 0 -0 -0 -0 -0 0 0 0 0 0 0 0 0 0 0 0 1 1 1 1 1 1 1 1 1 1 1 1 1 1
0 0 0 0 0 0 0 0 0 0 0 0 0 0 0 0 0 0 0 0 1 1 1 1 1 1 1 1 1 1 1 1
0 0 0 0 0 0 0 0 -0 0 0 0 0 0 0 0 0 0 0 1 1 1 1 2 1 1 1 1 2 1 1 1
0 0 0 0 0 -0 -0 -0 -0 -0 -0 -0 0 0 0 0 0 0 0 0 1 1 1 1 1 2 1 1 2 1 2 1
-0 0 0 0 -0 -0 -0 -0 -0 -0 -0 -0 -0 -0 -0 0 0 0 0 0 0 0 1 1 1 2 2 3 3 3 1 1
0 0 0 -0 -0 -0 -0 -0 -0 -0 -0 -0 0 0 0 -0 0 0 0 0 0 0 0 0 0 0 1 3 1 2 1 1
0 0 0 0 0 0 -0 -0 -0 -0 0 0 0 0 0 0 0 0 0 0 0 0 0 0 0 0 0 0 0 1 1 1
0 0 0 0 0 0 0 0 0 0 0 0 0 0 0 -0 0 0 0 0 0 0 0 0 0 0 0 0 0 0 0 1
0 0 0 0 0 0 0 0 0 0 0 0 0 0 0 0 0 0 0 0 0 0 0 0 0 0 0 0 0 0 0 1
0 0 0 0 0 0 0 0 0 0 0 0 0 -0 -0 -0 0 0 0 0 0 0 0 0 0 0 0 0 0 1 1 0
0 0 0 0 0 0 0 0 0 0 0 0 0 0 0 0 0 0 0 0 0 0 0 0 0 0 0 0 0 0 0 0
0 0 0 0 0 0 0 0 0 0 0 0 0 0 0 0 0 0 0 0 0 0 0 0 0 0 0 0 0 0 0 0
0 0 0 0 0 0 0 0 0 0 0 0 0 0 0 0 0 0 0 0 0 0 0 0 0 0 0 0 0 0 0 0
0 0 0 0 0 0 0 0 0 0 0 0 0 0 0 0 0 0 0 0 0 0 0 0 0 0 0 0 0 0 0 0
0 0 0 0 0 0 0 0 0 0 0 0 0 0 0 0 0 0 0 0 0 0 0 0 0 0 0 0 0 0 0 0
0 0 0 0 0 0 0 0 0 0 0 0 0 0 0 0 0 0 0 0 0 0 0 0 0 0 0 0 0 0 0 0
Wind_Speed_500mb
9 13 12 10 12 9 5 4 5 3 6 9 13 17 19 21 20 21 22 23 24 26 28 29 29 34 42 42 36 33 34 37
13 13 10 9 6 9 10 9 8 2 4 9 11 12 16 18 20 23 25 26 27 29 30 31 32 35 40 45 44 41 37 39
14 14 10 9 9 11 9 7 5 3 8 12 19 21 23 18 21 25 29 31 33 34 35 35 35 37 43 48 50 47 44 43
13 8 9 9 12 13 17 17 17 18 19 18 20 26 25 23 29 31 30 33 38 40 42 42 44 44 43 48 53 55 54 52
15 10 14 19 32 41 35 35 29 26 27 25 22 23 26 28 29 35 35 36 39 43 47 49 52 53 51 51 50 54 56 58
27 31 39 39 35 36 36 35 35 35 34 33 32 29 31 32 30 30 36 41 46 49 52 52 56 58 57 57 58 58 54 56
37 42 37 37 37 39 42 44 47 47 45 44 44 37 35 39 40 38 36 37 37 43 50 56 61 60 60 55 51 61 65 55
36 40 38 37 38 42 47 44 49 51 48 44 43 37 42 45 45 40 36 38 37 35 35 40 51 62 60 63 63 57 54 57
37 38 34 34 39 44 46 44 46 48 45 43 45 50 54 54 56 53 45 37 36 37 37 35 39 53 70 76 70 69 70 60
36 32 32 34 34 38 39 38 45 51 50 51 53 54 56 60 63 58 51 47 45 44 39 36 36 36 42 55 70 55 65 69
23 22 19 22 31 27 30 35 39 42 45 49 54 57 61 63 60 54 52 52 51 49 48 46 42 41 37 39 50 55 50 50
15 15 17 23 24 29 33 39 45 51 57 61 61 60 57 53 53 53 47 46 49 51 47 47 49 48 47 44 47 47 50 45
7 10 15 20 23 32 43 49 54 58 61 64 64 63 65 60 54 48 51 47 46 48 48 44 43 50 52 53 49 49 54 57
4 10 15 20 29 35 43 48 52 55 57 55 56 60 65 61 60 55 46 43 43 40 42 40 36 38 45 52 54 53 54 57
8 12 17 23 29 36 41 47 49 47 50 53 53 55 57 60 62 54 43 37 34 31 35 35 35 31 33 39 44 45 51 51
9 13 20 27 34 43 51 51 50 48 44 45 47 53 57 55 49 43 40 33 31 29 34 35 37 39 37 30 36 37 39 46
11 15 22 32 42 50 51 55 52 42 35 41 46 48 50 46 43 40 38 36 34 27 27 31 33 39 37 26 26 30 27 27
9 15 27 39 46 48 54 56 48 42 41 44 45 47 49 45 44 43 35 35 32 31 29 28 28 33 38 34 18 22 13 13
8 19 32 40 45 50 54 49 49 46 44 42 44 48 45 42 41 44 39 32 34 32 32 30 29 33 34 34 27 14 23 36
Wind_Direction_500mb
57 46 40 57 55 53 51 115 138 185 181 180 169 174 178 193 209 222 233 239 239 239 244 246 244 237 226 222 223 220 219 220
67 58 50 46 61 66 65 58 52 71 192 202 229 221 218 208 213 223 234 243 249 249 246 248 244 237 229 228 229 231 232 230
71 64 57 57 54 56 67 69 85 239 252 250 241 244 242 239 253 244 240 242 245 250 253 249 247 242 235 231 231 232 232 234
68 71 29 54 62 44 39 33 23 14 355 338 315 297 313 258 255 258 251 255 252 248 250 252 251 246 240 238 238 236 234 236
49 74 76 73 58 49 45 41 33 21 14 6 352 332 322 311 292 280 281 267 260 258 255 250 255 251 245 242 239 239 238 238
85 75 66 67 63 62 57 48 38 25 14 6 359 349 341 342 334 317 296 285 274 265 257 252 251 253 250 248 245 242 239 235
87 77 72 65 56 47 40 31 31 26 20 13 7 3 359 356 342 329 315 308 298 285 276 267 259 252 248 246 247 248 241 238
90 80 65 55 46 34 24 24 20 17 15 10 9 1 354 349 347 332 318 311 307 303 297 283 275 259 250 251 245 240 243 237
92 72 60 50 33 21 16 14 9 1 358 354 350 345 342 340 337 334 320 310 304 305 303 297 289 268 250 240 254 248 246 240
75 64 55 36 14 7 5 0 356 351 344 340 335 333 331 330 328 325 316 307 302 293 290 286 286 286 277 252 247 254 248 244
66 61 49 19 9 1 354 351 344 341 338 335 332 332 330 330 329 325 319 312 306 296 283 276 271 269 266 270 246 246 254 250
62 39 11 355 347 347 348 347 343 342 341 339 339 338 339 337 332 332 328 319 313 306 299 285 274 266 263 259 254 255 259 256
40 0 353 341 343 354 351 343 339 337 337 339 343 344 345 344 341 334 327 327 319 314 310 300 286 273 262 259 262 260 262 261
346 335 336 339 350 344 333 330 328 328 333 339 339 339 340 343 345 342 335 325 321 320 316 315 306 294 277 264 260 262 264 264
304 317 327 336 334 331 327 328 333 342 343 342 346 347 345 342 342 346 346 338 329 323 325 328 323 319 305 286 273 263 259 260
298 317 332 334 338 334 335 343 346 347 346 348 350 348 346 346 348 351 351 351 349 342 335 329 325 328 327 321 286 274 270 259
297 335 340 343 342 343 349 349 352 356 358 358 355 359 360 359 359 0 359 360 354 350 341 333 335 338 329 326 302 284 289 276
312 344 346 346 346 348 350 352 356 359 2 2 7 4 3 2 3 5 8 5 353 352 347 349 343 348 343 330 290 266 283 257
347 350 348 349 350 350 353 357 360 6 10 9 4 1 2 360 358 1 7 10 2 358 355 354 353 350 343 344 338 259 250 256
Wind_Speed_850mb
9 13 12 10 12 9 5 4 5 3 6 9 13 17 19 21 20 21 22 23 24 26 28 29 29 34 42 42 36 33 34 37
13 13 10 9 6 9 10 9 8 2 4 9 11 12 16 18 20 23 25 26 27 29 30 31 32 35 40 45 44 41 37 39
14 14 10 9 9 11 9 7 5 3 8 12 19 21 23 18 21 25 29 31 33 34 35 35 35 37 43 48 50 47 44 43
13 8 9 9 12 13 17 17 17 18 19 18 20 26 25 23 29 31 30 33 38 40 42 42 44 44 43 48 53 55 54 52
15 10 14 19 32 41 35 35 29 26 27 25 22 23 26 28 29 35 35 36 39 43 47 49 52 53 51 51 50 54 56 58
27 31 39 39 35 36 36 35 35 35 34 33 32 29 31 32 30 30 36 41 46 49 52 52 56 58 57 57 58 58 54 56
37 42 37 37 37 39 42 44 47 47 45 44 44 37 35 39 40 38 36 37 37 43 50 56 61 60 60 55 51 61 65 55
36 40 38 37 38 42 47 44 49 51 48 44 43 37 42 45 45 40 36 38 37 35 35 40 51 62 60 63 63 57 54 57
37 38 34 34 39 44 46 44 46 48 45 43 45 50 54 54 56 53 45 37 36 37 37 35 39 53 70 76 70 69 70 60
36 32 32 34 34 38 39 38 45 51 50 51 53 54 56 60 63 58 51 47 45 44 39 36 36 36 42 55 70 55 65 69
23 22 19 22 31 27 30 35 39 42 45 49 54 57 61 63 60 54 52 52 51 49 48 46 42 41 37 39 50 55 50 50
15 15 17 23 24 29 33 39 45 51 57 61 61 60 57 53 53 53 47 46 49 51 47 47 49 48 47 44 47 47 50 45
7 10 15 20 23 32 43 49 54 58 61 64 64 63 65 60 54 48 51 47 46 48 48 44 43 50 52 53 49 49 54 57
4 10 15 20 29 35 43 48 52 55 57 55 56 60 65 61 60 55 46 43 43 40 42 40 36 38 45 52 54 53 54 57
8 12 17 23 29 36 41 47 49 47 50 53 53 55 57 60 62 54 43 37 34 31 35 35 35 31 33 39 44 45 51 51
9 13 20 27 34 43 51 51 50 48 44 45 47 53 57 55 49 43 40 33 31 29 34 35 37 39 37 30 36 37 39 46
11 15 22 32 42 50 51 55 52 42 35 41 46 48 50 46 43 40 38 36 34 27 27 31 33 39 37 26 26 30 27 27
9 15 27 39 46 48 54 56 48 42 41 44 45 47 49 45 44 43 35 35 32 31 29 28 28 33 38 34 18 22 13 13
8 19 32 40 45 50 54 49 49 46 44 42 44 48 45 42 41 44 39 32 34 32 32 30 29 33 34 34 27 14 23 36
Wind_Direction_850mb
57 46 40 57 55 53 51 115 138 185 181 180 169 174 178 193 209 222 233 239 239 239 244 246 244 237 226 222 223 220 219 220
67 58 50 46 61 66 65 58 52 71 192 202 229 221 218 208 213 223 234 243 249 249 246 248 244 237 229 228 229 231 232 230
71 64 57 57 54 56 67 69 85 239 252 250 241 244 242 239 253 244 240 242 245 250 253 249 247 242 235 231 231 232 232 234
68 71 29 54 62 44 39 33 23 14 355 338 315 297 313 258 255 258 251 255 252 248 250 252 251 246 240 238 238 236 234 236
49 74 76 73 58 49 45 41 33 21 14 6 352 332 322 311 292 280 281 267 260 258 255 250 255 251 245 242 239 239 238 238
85 75 66 67 63 62 57 48 38 25 14 6 359 349 341 342 334 317 296 285 274 265 257 252 251 253 250 248 245 242 239 235
87 77 72 65 56 47 40 31 31 26 20 13 7 3 359 356 342 329 315 308 298 285 276 267 259 252 248 246 247 248 241 238
90 80 65 55 46 34 24 24 20 17 15 10 9 1 354 349 347 332 318 311 307 303 297 283 275 259 250 251 245 240 243 237
92 72 60 50 33 21 16 14 9 1 358 354 350 345 342 340 337 334 320 310 304 305 303 297 289 268 250 240 254 248 246 240
75 64 55 36 14 7 5 0 356 351 344 340 335 333 331 330 328 325 316 307 302 293 290 286 286 286 277 252 247 254 248 244
66 61 49 19 9 1 354 351 344 341 338 335 332 332 330 330 329 325 319 312 306 296 283 276 271 269 266 270 246 246 254 250
62 39 11 355 347 347 348 347 343 342 341 339 339 338 339 337 332 332 328 319 313 306 299 285 274 266 263 259 254 255 259 256
40 0 353 341 343 354 351 343 339 337 337 339 343 344 345 344 341 334 327 327 319 314 310 300 286 273 262 259 262 260 262 261
346 335 336 339 350 344 333 330 328 328 333 339 339 339 340 343 345 342 335 325 321 320 316 315 306 294 277 264 260 262 264 264
304 317 327 336 334 331 327 328 333 342 343 342 346 347 345 342 342 346 346 338 329 323 325 328 323 319 305 286 273 263 259 260
298 317 332 334 338 334 335 343 346 347 346 348 350 348 346 346 348 351 351 351 349 342 335 329 325 328 327 321 286 274 270 259
297 335 340 343 342 343 349 349 352 356 358 358 355 359 360 359 359 0 359 360 354 350 341 333 335 338 329 326 302 284 289 276
312 344 346 346 346 348 350 352 356 359 2 2 7 4 3 2 3 5 8 5 353 352 347 349 343 348 343 330 290 266 283 257
347 350 348 349 350 350 353 357 360 6 10 9 4 1 2 360 358 1 7 10 2 358 355 354 353 350 343 344 338 259 250 256